{"data":{"norad_id":58702,"intl_designator":"2024-004C","name":"TIANMU-1 17","alt_names":[],"object_type":"PAYLOAD","status":"ACTIVE","operator":null,"country":"PRC","launch_date":"2024-01-05","launch_site_code":"JSC","launch_vehicle":null,"mission":null,"orbit_class":"UNKNOWN","rcs_meters":null,"size_class":null,"mass_kg":null,"dimensions":null,"purposes":["earth_obs"],"wikipedia_slug":null,"has_3d_model":false,"image_url":null,"decayed_at":null,"tle_current":{"epoch":"2026-05-25T04:44:38.346720Z","epoch_age_seconds":51195,"freshness":"FRESH","line1":"1 58702U 24004C   26145.19766605  .00005317  00000+0  20659-3 0  9990","line2":"2 58702  97.4651 331.1273 0007118  82.6471 277.5576 15.26472598132263","mean_motion":15.26472598,"eccentricity":0.0007118,"inclination_deg":97.4651,"raan_deg":331.1273,"arg_perigee_deg":82.6471,"mean_anomaly_deg":277.5576,"bstar":0.00020659,"rev_number":13226,"period_min":94.335135913131,"perigee_km":481.48090653822,"apogee_km":491.25321451878,"semimajor_km":6864.5040605285,"source":"CELESTRAK","updated_at":"2026-05-25T13:38:12.260525Z"}}}